"read_dt","SO2 (ppb)","flags","PMT voltage (V)","lamp voltage (V)","lamp intensity (Hz)","internal temp (C)","react chamber temp (C)","sample flow (l/min)","pres (mmHg)","SO2 bkg (ppb)","SO2 coefficient"
2014-04-22 00:00:00,3163E-2,5C000400,-0724,1024,10287,027.3,045.3,0.151,741.0,01.18,0.508
2014-04-22 00:01:00,3127E-2,5C000400,-0724,1024,10241,027.3,045.3,0.151,741.0,01.18,0.508
2014-04-22 00:02:00,3188E-2,5C000400,-0724,1025,10278,027.3,045.3,0.151,740.9,01.18,0.508
2014-04-22 00:03:00,3197E-2,5C000400,-0724,1025,10424,027.3,045.3,0.151,741.0,01.18,0.508
2014-04-22 00:04:00,3180E-2,5C000400,-0724,1025,10275,027.3,045.3,0.151,741.0,01.18,0.508
2014-04-22 00:05:00,3180E-2,5C000400,-0724,1024,10314,027.3,045.3,0.151,740.9,01.18,0.508
2014-04-22 00:06:00,3197E-2,5C000400,-0724,1025,10405,027.3,045.3,0.151,741.0,01.18,0.508
2014-04-22 00:07:00,3184E-2,5C000400,-0724,1025,10060,027.3,045.3,0.151,741.1,01.18,0.508
2014-04-22 00:08:00,3107E-2,5C000400,-0724,1026,10433,027.3,045.3,0.151,741.0,01.18,0.508
2014-04-22 00:09:00,3169E-2,5C000400,-0724,1026,10460,027.3,045.3,0.151,740.9,01.18,0.508
2014-04-22 00:10:00,3142E-2,5C000400,-0724,1026,10346,027.2,045.3,0.151,741.0,01.18,0.508
2014-04-22 00:11:00,3180E-2,5C000400,-0724,1025,10284,027.3,045.3,0.151,740.9,01.18,0.508
2014-04-22 00:12:00,3153E-2,5C000400,-0724,1024,10267,027.2,045.3,0.151,740.9,01.18,0.508
2014-04-22 00:13:00,3138E-2,5C000400,-0724,1024,10259,027.2,045.3,0.151,740.9,01.18,0.508
2014-04-22 00:14:00,3173E-2,5C000400,-0724,1025,10306,027.2,045.3,0.151,741.0,01.18,0.508
2014-04-22 00:15:00,3171E-2,5C000400,-0724,1025,10354,027.2,045.3,0.151,741.0,01.18,0.508
2014-04-22 00:16:00,3184E-2,5C000400,-0724,1025,10347,027.2,045.3,0.151,740.9,01.18,0.508
2014-04-22 00:17:00,3146E-2,5C000400,-0724,1024,10273,027.2,045.3,0.151,740.9,01.18,0.508
2014-04-22 00:18:00,3159E-2,5C000400,-0724,1025,10098,027.2,045.3,0.151,740.9,01.18,0.508
2014-04-22 00:19:00,3175E-2,5C000400,-0724,1025,10255,027.2,045.3,0.151,741.0,01.18,0.508
2014-04-22 00:20:00,3197E-2,5C000400,-0724,1023,10236,027.3,045.3,0.151,741.0,01.18,0.508
2014-04-22 00:21:00,3169E-2,5C000400,-0724,1024,10194,027.3,045.3,0.151,740.8,01.18,0.508
2014-04-22 00:22:00,3135E-2,5C000400,-0724,1024,10201,027.3,045.3,0.151,740.8,01.18,0.508
2014-04-22 00:23:00,3144E-2,5C000400,-0724,1025,10286,027.3,045.3,0.151,740.7,01.18,0.508
2014-04-22 00:24:00,3211E-2,5C000400,-0724,1025,10385,027.3,045.3,0.151,740.7,01.18,0.508
2014-04-22 00:25:00,3159E-2,5C000400,-0724,1025,10351,027.3,045.3,0.151,740.6,01.18,0.508
2014-04-22 00:26:00,3164E-2,5C000400,-0724,1026,10314,027.3,045.3,0.151,740.8,01.18,0.508
2014-04-22 00:27:00,3198E-2,5C000400,-0724,1026,10363,027.3,045.3,0.151,740.9,01.18,0.508
2014-04-22 00:28:00,3125E-2,5C000400,-0724,1025,10281,027.3,045.3,0.151,740.9,01.18,0.508
2014-04-22 00:29:00,3186E-2,5C000400,-0724,1026,10298,027.3,045.3,0.151,740.7,01.18,0.508
2014-04-22 00:30:00,3180E-2,5C000400,-0724,1027,10260,027.3,045.3,0.151,740.9,01.18,0.508
2014-04-22 00:31:00,3197E-2,5C000400,-0724,1025,10332,027.3,045.3,0.151,740.9,01.18,0.508
2014-04-22 00:32:00,3191E-2,5C000400,-0724,1025,10238,027.3,045.3,0.151,740.8,01.18,0.508
2014-04-22 00:33:00,3178E-2,5C000400,-0724,1025,10247,027.3,045.3,0.151,740.8,01.18,0.508
2014-04-22 00:34:00,3196E-2,5C000400,-0724,1026,10400,027.2,045.3,0.151,740.8,01.18,0.508
2014-04-22 00:35:00,3202E-2,5C000400,-0724,1026,10286,027.2,045.3,0.151,740.9,01.18,0.508
2014-04-22 00:36:00,3187E-2,5C000400,-0724,1026,10272,027.2,045.3,0.151,740.8,01.18,0.508
2014-04-22 00:37:00,3196E-2,5C000400,-0724,1027,10160,027.2,045.3,0.151,740.8,01.18,0.508
2014-04-22 00:38:00,3199E-2,5C000400,-0724,1025,10243,027.2,045.3,0.151,740.9,01.18,0.508
2014-04-22 00:39:00,3199E-2,5C000400,-0724,1026,10223,027.2,045.3,0.151,740.8,01.18,0.508
2014-04-22 00:40:00,3182E-2,5C000400,-0724,1027,10192,027.2,045.3,0.151,740.7,01.18,0.508
2014-04-22 00:41:00,3177E-2,5C000400,-0724,1025,10177,027.2,045.3,0.151,740.6,01.18,0.508
2014-04-22 00:42:00,3229E-2,5C000400,-0724,1027,10274,027.1,045.3,0.151,740.7,01.18,0.508
2014-04-22 00:43:00,3157E-2,5C000400,-0724,1027,10097,027.1,045.3,0.151,740.8,01.18,0.508
2014-04-22 00:44:00,3193E-2,5C000400,-0724,1026,10252,027.2,045.3,0.151,740.6,01.18,0.508
2014-04-22 00:45:00,3208E-2,5C000400,-0724,1027,10210,027.1,045.3,0.151,740.6,01.18,0.508
2014-04-22 00:46:00,3179E-2,5C000400,-0724,1027,10291,027.2,045.3,0.151,740.6,01.18,0.508
2014-04-22 00:47:00,3200E-2,5C000400,-0724,1027,10311,027.2,045.3,0.151,740.6,01.18,0.508
2014-04-22 00:48:00,3192E-2,5C000400,-0724,1027,10267,027.2,045.3,0.151,740.6,01.18,0.508
2014-04-22 00:49:00,3186E-2,5C000400,-0724,1027,10258,027.2,045.3,0.151,740.6,01.18,0.508
2014-04-22 00:50:00,3184E-2,5C000400,-0724,1026,10153,027.2,045.3,0.151,740.6,01.18,0.508
2014-04-22 00:51:00,3211E-2,5C000400,-0724,1027,10213,027.1,045.3,0.151,740.6,01.18,0.508
2014-04-22 00:52:00,3208E-2,5C000400,-0724,1027,10189,027.2,045.3,0.151,740.6,01.18,0.508
2014-04-22 00:53:00,3173E-2,5C000400,-0724,1028,10230,027.1,045.3,0.151,740.6,01.18,0.508
2014-04-22 00:54:00,3195E-2,5C000400,-0724,1028,10177,027.1,045.3,0.151,740.6,01.18,0.508
2014-04-22 00:55:00,3190E-2,5C000400,-0724,1026,10163,027.1,045.3,0.151,740.6,01.18,0.508
2014-04-22 00:56:00,3193E-2,5C000400,-0724,1028,10174,027.1,045.3,0.151,740.6,01.18,0.508
2014-04-22 00:57:00,3149E-2,5C000400,-0724,1028,10337,027.1,045.3,0.151,740.6,01.18,0.508
2014-04-22 00:58:00,3200E-2,5C000400,-0724,1027,10093,027.1,045.3,0.151,740.6,01.18,0.508
2014-04-22 00:59:00,3168E-2,5C000400,-0724,1028,10270,027.1,045.3,0.151,740.6,01.18,0.508
2014-04-22 01:00:00,3214E-2,5C000400,-0724,1027,10272,027.1,045.3,0.151,740.6,01.18,0.508
2014-04-22 01:01:00,3177E-2,5C000400,-0724,1027,10298,027.1,045.3,0.151,740.6,01.18,0.508
2014-04-22 01:02:00,3201E-2,5C000400,-0724,1027,10193,027.1,045.3,0.151,740.6,01.18,0.508
2014-04-22 01:03:00,3219E-2,5C000400,-0724,1027,10293,027.1,045.3,0.152,740.6,01.18,0.508
2014-04-22 01:04:00,3165E-2,5C000400,-0724,1028,10243,027.1,045.3,0.151,740.6,01.18,0.508
2014-04-22 01:05:00,3183E-2,5C000400,-0724,1028,10196,027.1,045.3,0.151,740.6,01.18,0.508
2014-04-22 01:06:00,3146E-2,5C000400,-0724,1029,10041,027.1,045.3,0.151,740.6,01.18,0.508
2014-04-22 01:07:00,3207E-2,5C000400,-0724,1029,10337,027.1,045.3,0.151,740.6,01.18,0.508
2014-04-22 01:08:00,3200E-2,5C000400,-0724,1027,10286,027.1,045.3,0.152,740.6,01.18,0.508
2014-04-22 01:09:00,3237E-2,5C000400,-0724,1027,10167,027.1,045.3,0.151,740.6,01.18,0.508
2014-04-22 01:10:00,3171E-2,5C000400,-0724,1027,10144,027.1,045.3,0.151,740.6,01.18,0.508
2014-04-22 01:11:00,3177E-2,5C000400,-0724,1028,10327,027.1,045.3,0.151,740.6,01.18,0.508
2014-04-22 01:12:00,3195E-2,5C000400,-0724,1029,10305,027.1,045.3,0.151,740.6,01.18,0.508
2014-04-22 01:13:00,3213E-2,5C000400,-0724,1027,10275,027.1,045.3,0.152,740.6,01.18,0.508
2014-04-22 01:14:00,3224E-2,5C000400,-0724,1027,10316,027.1,045.3,0.151,740.6,01.18,0.508
2014-04-22 01:15:00,3204E-2,5C000400,-0724,1027,10280,027.1,045.3,0.151,740.6,01.18,0.508
2014-04-22 01:16:00,3174E-2,5C000400,-0724,1029,10459,027.1,045.3,0.152,740.6,01.18,0.508
2014-04-22 01:17:00,3181E-2,5C000400,-0724,1027,10276,027.1,045.3,0.152,740.6,01.18,0.508
2014-04-22 01:18:00,3172E-2,5C000400,-0724,1027,10212,027.1,045.3,0.152,740.6,01.18,0.508
2014-04-22 01:19:00,3154E-2,5C000400,-0724,1027,10336,027.1,045.3,0.152,740.6,01.18,0.508
2014-04-22 01:20:00,3177E-2,5C000400,-0724,1027,10183,027.1,045.3,0.151,740.6,01.18,0.508
2014-04-22 01:21:00,3158E-2,5C000400,-0724,1027,10169,027.1,045.3,0.152,740.6,01.18,0.508
2014-04-22 01:22:00,3230E-2,5C000400,-0724,1028,10201,027.1,045.3,0.152,740.6,01.18,0.508
2014-04-22 01:23:00,3171E-2,5C000400,-0724,1028,10312,027.1,045.3,0.152,740.6,01.18,0.508
2014-04-22 01:24:00,3210E-2,5C000400,-0724,1027,10196,027.1,045.3,0.152,740.6,01.18,0.508
2014-04-22 01:25:00,3175E-2,5C000400,-0724,1028,10305,027.1,045.3,0.152,740.6,01.18,0.508
2014-04-22 01:26:00,3188E-2,5C000400,-0724,1027,10396,027.1,045.3,0.152,740.6,01.18,0.508
2014-04-22 01:27:00,3196E-2,5C000400,-0724,1028,10294,027.1,045.3,0.152,740.6,01.18,0.508
2014-04-22 01:28:00,3197E-2,5C000400,-0724,1028,10287,027.1,045.3,0.152,740.6,01.18,0.508
2014-04-22 01:29:00,3172E-2,5C000400,-0724,1027,10173,027.1,045.3,0.152,740.6,01.18,0.508
2014-04-22 01:30:00,3164E-2,5C000400,-0724,1028,10143,027.1,045.3,0.152,740.6,01.18,0.508
2014-04-22 01:31:00,3225E-2,5C000400,-0724,1029,10165,027.0,045.3,0.152,740.6,01.18,0.508
2014-04-22 01:32:00,3163E-2,5C000400,-0724,1028,10210,027.1,045.3,0.152,740.6,01.18,0.508
2014-04-22 01:33:00,3143E-2,5C000400,-0724,1028,10400,027.1,045.3,0.152,740.6,01.18,0.508
2014-04-22 01:34:00,3178E-2,5C000400,-0724,1028,10263,027.1,045.3,0.152,740.6,01.18,0.508
2014-04-22 01:35:00,3194E-2,5C000400,-0724,1028,10263,027.1,045.3,0.152,740.6,01.18,0.508
2014-04-22 01:36:00,3197E-2,5C000400,-0724,1026,10308,027.1,045.3,0.152,740.6,01.18,0.508
2014-04-22 01:37:00,3217E-2,5C000400,-0724,1029,10313,027.1,045.3,0.152,740.6,01.18,0.508
2014-04-22 01:38:00,3197E-2,5C000400,-0724,1028,10376,027.1,045.3,0.152,740.6,01.18,0.508
2014-04-22 01:39:00,3211E-2,5C000400,-0724,1029,10193,027.0,045.3,0.152,740.5,01.18,0.508
2014-04-22 01:40:00,3216E-2,5C000400,-0724,1028,10222,027.0,045.3,0.152,740.6,01.18,0.508
2014-04-22 01:41:00,3145E-2,5C000400,-0724,1029,10046,027.0,045.3,0.152,740.6,01.18,0.508
2014-04-22 01:42:00,3204E-2,5C000400,-0724,1028,10270,027.0,045.3,0.152,740.6,01.18,0.508
2014-04-22 01:43:00,3165E-2,5C000400,-0724,1029,9982,027.0,045.3,0.152,740.6,01.18,0.508
2014-04-22 01:44:00,3174E-2,5C000400,-0724,1029,10165,027.0,045.3,0.152,740.6,01.18,0.508
2014-04-22 01:45:00,3189E-2,5C000410,-0724,1028,10332,027.0,045.3,0.152,740.6,01.18,0.508
2014-04-22 01:46:00,3151E-2,5C000400,-0724,1029,10220,027.0,045.3,0.152,740.6,01.18,0.508
2014-04-22 01:47:00,3160E-2,5C000400,-0724,1028,10346,027.0,045.3,0.152,740.6,01.18,0.508
2014-04-22 01:48:00,3157E-2,5C000400,-0724,1029,10148,027.0,045.3,0.152,740.5,01.18,0.508
2014-04-22 01:49:00,3167E-2,5C000400,-0724,1028,10293,027.0,045.3,0.152,740.6,01.18,0.508
2014-04-22 01:50:00,3155E-2,5C000400,-0724,1027,10296,027.0,045.3,0.152,740.6,01.18,0.508
2014-04-22 01:51:00,3188E-2,5C000400,-0724,1027,10202,027.0,045.3,0.152,740.6,01.18,0.508
2014-04-22 01:52:00,3166E-2,5C000400,-0724,1028,10292,027.0,045.3,0.152,740.6,01.18,0.508
2014-04-22 01:53:00,3140E-2,5C000400,-0724,1027,10200,027.0,045.3,0.152,740.6,01.18,0.508
2014-04-22 01:54:00,3138E-2,5C000400,-0724,1028,10339,027.0,045.3,0.152,740.5,01.18,0.508
2014-04-22 01:55:00,3176E-2,5C000400,-0724,1028,10167,027.0,045.3,0.152,740.5,01.18,0.508
2014-04-22 01:56:00,3130E-2,5C000400,-0724,1028,10279,027.0,045.3,0.152,740.6,01.18,0.508
2014-04-22 01:57:00,3159E-2,5C000400,-0724,1027,10256,027.0,045.3,0.152,740.6,01.18,0.508
2014-04-22 01:58:00,3149E-2,5C000400,-0724,1028,10480,027.0,045.3,0.152,740.6,01.18,0.508
2014-04-22 01:59:00,3139E-2,5C000400,-0724,1027,10151,027.0,045.3,0.152,740.5,01.18,0.508
2014-04-22 02:00:00,3202E-2,5C000400,-0724,1029,10185,027.0,045.3,0.152,740.6,01.18,0.508
2014-04-22 02:01:00,3169E-2,5C000400,-0724,1028,10344,027.0,045.3,0.152,740.6,01.18,0.508
2014-04-22 02:02:00,3175E-2,5C000400,-0724,1027,10176,027.0,045.3,0.152,740.6,01.18,0.508
2014-04-22 02:03:00,3185E-2,5C000400,-0724,1028,10373,027.0,045.3,0.152,740.5,01.18,0.508
2014-04-22 02:04:00,3122E-2,5C000400,-0724,1022,10295,026.9,045.3,0.152,740.6,01.18,0.508
2014-04-22 02:05:00,3133E-2,5C000400,-0724,1024,10290,026.9,045.3,0.152,740.5,01.18,0.508
2014-04-22 02:06:00,3070E-2,5C000400,-0724,1025,10291,027.0,045.3,0.152,740.5,01.18,0.508
2014-04-22 02:07:00,3203E-2,5C000400,-0724,1025,10277,027.0,045.3,0.152,740.5,01.18,0.508
2014-04-22 02:08:00,3168E-2,5C000400,-0724,1025,10195,027.0,045.3,0.152,740.5,01.18,0.508
2014-04-22 02:09:00,3200E-2,5C000400,-0724,1026,10309,027.0,045.3,0.152,740.5,01.18,0.508
2014-04-22 02:10:00,3204E-2,5C000400,-0724,1026,10214,027.0,045.3,0.152,740.5,01.18,0.508
2014-04-22 02:11:00,3231E-2,5C000400,-0724,1025,10233,027.0,045.3,0.152,740.5,01.18,0.508
2014-04-22 02:12:00,3277E-2,5C000400,-0724,1025,10290,027.0,045.3,0.152,740.5,01.18,0.508
2014-04-22 02:13:00,3191E-2,5C000400,-0724,1024,10222,027.0,045.3,0.152,740.3,01.18,0.508
2014-04-22 02:14:00,3195E-2,5C000400,-0724,1026,10377,026.9,045.3,0.152,740.4,01.18,0.508
2014-04-22 02:15:00,3176E-2,5C000400,-0724,1025,10351,027.0,045.3,0.152,740.3,01.18,0.508
2014-04-22 02:16:00,3228E-2,5C000400,-0724,1023,10402,027.0,045.3,0.152,740.3,01.18,0.508
2014-04-22 02:17:00,3141E-2,5C000400,-0724,1021,10099,027.0,045.3,0.152,740.3,01.18,0.508
2014-04-22 02:18:00,3141E-2,5C000400,-0724,1021,10378,027.0,045.3,0.152,740.2,01.18,0.508
2014-04-22 02:19:00,3187E-2,5C000400,-0724,1023,10339,027.0,045.3,0.152,740.2,01.18,0.508
2014-04-22 02:20:00,3150E-2,5C000400,-0724,1024,10306,026.9,045.3,0.152,740.2,01.18,0.508
2014-04-22 02:21:00,3150E-2,5C000400,-0724,1022,10239,026.9,045.3,0.152,740.2,01.18,0.508
2014-04-22 02:22:00,3168E-2,5C000400,-0724,1023,10318,026.9,045.3,0.152,740.2,01.18,0.508
2014-04-22 02:23:00,3181E-2,5C000400,-0724,1022,10118,026.9,045.3,0.152,740.2,01.18,0.508
2014-04-22 02:24:00,3144E-2,5C000400,-0724,1023,10218,026.9,045.3,0.152,740.2,01.18,0.508
2014-04-22 02:25:00,3147E-2,5C000400,-0724,1024,10257,026.9,045.3,0.152,740.3,01.18,0.508
2014-04-22 02:26:00,3185E-2,5C000400,-0724,1023,10403,026.9,045.3,0.152,740.2,01.18,0.508
2014-04-22 02:27:00,3150E-2,5C000400,-0724,1024,10255,026.9,045.3,0.152,740.3,01.18,0.508
2014-04-22 02:28:00,3175E-2,5C000400,-0724,1024,10362,026.9,045.3,0.152,740.3,01.18,0.508
2014-04-22 02:29:00,3159E-2,5C000400,-0724,1023,10294,026.9,045.3,0.152,740.2,01.18,0.508
2014-04-22 02:30:00,3170E-2,5C000400,-0724,1023,10304,026.9,045.3,0.152,740.2,01.18,0.508
2014-04-22 02:31:00,3192E-2,5C000400,-0724,1024,10303,026.9,045.3,0.152,740.1,01.18,0.508
2014-04-22 02:32:00,3177E-2,5C000400,-0724,1023,10270,026.9,045.3,0.152,740.1,01.18,0.508
2014-04-22 02:33:00,3187E-2,5C000400,-0724,1023,10246,026.9,045.3,0.152,740.1,01.18,0.508
2014-04-22 02:34:00,3158E-2,5C000400,-0724,1024,10335,026.9,045.3,0.152,740.1,01.18,0.508
2014-04-22 02:35:00,3202E-2,5C000400,-0724,1022,10344,026.9,045.3,0.152,740.0,01.18,0.508
2014-04-22 02:36:00,3145E-2,5C000400,-0724,1024,10344,026.9,045.3,0.152,740.0,01.18,0.508
2014-04-22 02:37:00,3167E-2,5C000400,-0724,1024,10276,026.9,045.3,0.152,740.1,01.18,0.508
2014-04-22 02:38:00,3172E-2,5C000410,-0724,1024,10198,026.9,045.3,0.152,740.0,01.18,0.508
2014-04-22 02:39:00,3224E-2,5C000410,-0724,1025,10372,026.9,045.3,0.152,740.0,01.18,0.508
2014-04-22 02:40:00,3211E-2,5C000400,-0724,1026,10239,026.9,045.3,0.152,740.1,01.18,0.508
2014-04-22 02:41:00,3174E-2,5C000400,-0724,1025,10457,026.9,045.3,0.152,740.0,01.18,0.508
2014-04-22 02:42:00,3155E-2,5C000400,-0724,1026,10356,026.9,045.3,0.152,739.9,01.18,0.508
2014-04-22 02:43:00,3183E-2,5C000400,-0724,1026,10199,026.9,045.3,0.152,739.9,01.18,0.508
2014-04-22 02:44:00,3202E-2,5C000400,-0724,1029,10189,026.9,045.3,0.152,739.9,01.18,0.508
2014-04-22 02:45:00,3210E-2,5C000400,-0724,1030,10177,026.9,045.3,0.152,739.9,01.18,0.508
2014-04-22 02:46:00,3262E-2,5C000400,-0724,1031,10254,026.9,045.3,0.152,739.9,01.18,0.508
2014-04-22 02:47:00,3254E-2,5C000400,-0724,1034,10214,026.9,045.3,0.152,739.8,01.18,0.508
2014-04-22 02:48:00,3245E-2,5C000400,-0724,1036,10203,026.9,045.3,0.152,739.7,01.18,0.508
2014-04-22 02:49:00,3267E-2,5C000410,-0724,1037,10061,026.9,045.3,0.152,739.8,01.18,0.508
2014-04-22 02:50:00,3250E-2,5C000400,-0724,1037,10114,026.9,045.3,0.152,739.8,01.18,0.508
2014-04-22 02:51:00,3298E-2,5C000400,-0724,1038,10218,026.9,045.3,0.152,739.7,01.18,0.508
2014-04-22 02:52:00,3294E-2,5C000400,-0724,1038,10057,026.9,045.3,0.152,739.6,01.18,0.508
2014-04-22 02:53:00,3275E-2,5C000400,-0724,1039,10228,026.9,045.3,0.152,739.7,01.18,0.508
2014-04-22 02:54:00,3286E-2,5C000400,-0724,1039,10201,027.0,045.3,0.152,739.8,01.18,0.508
2014-04-22 02:55:00,3279E-2,5C000400,-0724,1040,10220,026.9,045.3,0.152,739.7,01.18,0.508
2014-04-22 02:56:00,3277E-2,5C000400,-0724,1041,10072,026.9,045.3,0.152,739.6,01.18,0.508
2014-04-22 02:57:00,3311E-2,5C000400,-0724,1040,10138,026.9,045.3,0.152,739.7,01.18,0.508
2014-04-22 02:58:00,3256E-2,5C000400,-0724,1040,10155,026.9,045.3,0.152,739.7,01.18,0.508
2014-04-22 02:59:00,3297E-2,5C000400,-0724,1041,10079,026.9,045.3,0.152,739.7,01.18,0.508
2014-04-22 03:00:00,3291E-2,5C000400,-0724,1043,10128,026.9,045.3,0.152,739.7,01.18,0.508
2014-04-22 03:01:00,3305E-2,5C000400,-0724,1041,10126,026.9,045.3,0.152,739.7,01.18,0.508
2014-04-22 03:02:00,3220E-2,5C000400,-0724,1041,10290,026.9,045.3,0.152,739.7,01.18,0.508
2014-04-22 03:03:00,3250E-2,5C000400,-0724,1041,10218,026.9,045.3,0.152,739.7,01.18,0.508
2014-04-22 03:04:00,3265E-2,5C000400,-0724,1041,10157,026.9,045.3,0.152,739.7,01.18,0.508
2014-04-22 03:05:00,3286E-2,5C000400,-0724,1041,9914,026.9,045.3,0.152,739.7,01.18,0.508
2014-04-22 03:06:00,3224E-2,5C000400,-0724,1042,10053,026.9,045.3,0.152,739.7,01.18,0.508
2014-04-22 03:07:00,3294E-2,5C000400,-0724,1042,10200,026.9,045.3,0.152,739.7,01.18,0.508
2014-04-22 03:08:00,3247E-2,5C000400,-0724,1043,10194,026.9,045.3,0.152,739.7,01.18,0.508
2014-04-22 03:09:00,3243E-2,5C000400,-0724,1043,10210,026.9,045.3,0.152,739.7,01.18,0.508
2014-04-22 03:10:00,3290E-2,5C000400,-0724,1043,10071,026.9,045.3,0.152,739.7,01.18,0.508
2014-04-22 03:11:00,3273E-2,5C000400,-0724,1042,10193,026.9,045.3,0.152,739.8,01.18,0.508
2014-04-22 03:12:00,3288E-2,5C000400,-0724,1043,10152,026.9,045.3,0.152,739.8,01.18,0.508
2014-04-22 03:13:00,3344E-2,5C000410,-0724,1043,9902,026.9,045.3,0.152,739.7,01.18,0.508
2014-04-22 03:14:00,3296E-2,5C000410,-0724,1042,9910,026.9,045.3,0.152,739.6,01.18,0.508
2014-04-22 03:15:00,3325E-2,5C000400,-0724,1044,10011,026.9,045.3,0.152,739.7,01.18,0.508
2014-04-22 03:16:00,3259E-2,5C000400,-0724,1042,10036,026.9,045.3,0.152,739.8,01.18,0.508
2014-04-22 03:17:00,3248E-2,5C000400,-0724,1044,10157,026.9,045.3,0.152,739.7,01.18,0.508
2014-04-22 03:18:00,3275E-2,5C000400,-0724,1044,10157,026.9,045.3,0.152,739.7,01.18,0.508
2014-04-22 03:19:00,3262E-2,5C000400,-0724,1044,10023,026.9,045.3,0.152,739.7,01.18,0.508
2014-04-22 03:20:00,3240E-2,5C000400,-0724,1043,9958,026.9,045.3,0.152,739.7,01.18,0.508
2014-04-22 03:21:00,3229E-2,5C000400,-0724,1044,9973,026.9,045.3,0.152,739.8,01.18,0.508
2014-04-22 03:22:00,3281E-2,5C000400,-0724,1043,10004,026.9,045.3,0.152,739.7,01.18,0.508
2014-04-22 03:23:00,3266E-2,5C000410,-0724,1043,10140,026.9,045.3,0.152,739.7,01.18,0.508
2014-04-22 03:24:00,3280E-2,5C000410,-0724,1044,10047,026.9,045.3,0.152,739.7,01.18,0.508
2014-04-22 03:25:00,3248E-2,5C000400,-0724,1045,10232,026.9,045.3,0.152,739.8,01.18,0.508
2014-04-22 03:26:00,3307E-2,5C000400,-0724,1045,9907,026.9,045.3,0.152,739.7,01.18,0.508
2014-04-22 03:27:00,3270E-2,5C000400,-0724,1044,10146,026.9,045.3,0.152,739.8,01.18,0.508
2014-04-22 03:28:00,3296E-2,5C000400,-0724,1044,10090,026.9,045.3,0.152,739.8,01.18,0.508
2014-04-22 03:29:00,3271E-2,5C000400,-0724,1044,10120,026.9,045.3,0.152,739.7,01.18,0.508
2014-04-22 03:30:00,3258E-2,5C000400,-0724,1046,10088,026.9,045.3,0.152,739.7,01.18,0.508
2014-04-22 03:31:00,3316E-2,5C000400,-0724,1045,10121,026.9,045.3,0.152,739.8,01.18,0.508
2014-04-22 03:32:00,3335E-2,5C000400,-0724,1043,10155,026.9,045.3,0.152,739.7,01.18,0.508
2014-04-22 03:33:00,3301E-2,5C000400,-0724,1044,9752,026.9,045.3,0.152,739.8,01.18,0.508
2014-04-22 03:34:00,3345E-2,5C000400,-0724,1044,10068,026.9,045.3,0.152,739.8,01.18,0.508
2014-04-22 03:35:00,3264E-2,5C000400,-0724,1045,10071,026.9,045.3,0.152,739.8,01.18,0.508
2014-04-22 03:36:00,3345E-2,5C000410,-0724,1044,9929,026.9,045.3,0.152,739.8,01.18,0.508
2014-04-22 03:37:00,3331E-2,5C000400,-0724,1044,10179,026.9,045.3,0.152,739.8,01.18,0.508
2014-04-22 03:38:00,3332E-2,5C000410,-0724,1045,10070,026.9,045.3,0.152,739.9,01.18,0.508
2014-04-22 03:39:00,3351E-2,5C000400,-0724,1044,10098,026.9,045.3,0.152,739.8,01.18,0.508
2014-04-22 03:40:00,3314E-2,5C000400,-0724,1044,9877,026.9,045.3,0.152,739.8,01.18,0.508
2014-04-22 03:41:00,3299E-2,5C000400,-0724,1044,10164,026.9,045.3,0.152,739.9,01.18,0.508
2014-04-22 03:42:00,3313E-2,5C000410,-0724,1044,10067,026.9,045.3,0.152,739.8,01.18,0.508
2014-04-22 03:43:00,3305E-2,5C000400,-0724,1044,10148,026.9,045.3,0.152,739.8,01.18,0.508
2014-04-22 03:44:00,3354E-2,5C000400,-0724,1045,10224,026.9,045.3,0.152,739.8,01.18,0.508
2014-04-22 03:45:00,3333E-2,5C000410,-0724,1044,9979,026.9,045.3,0.152,739.8,01.18,0.508
2014-04-22 03:46:00,3310E-2,5C000400,-0724,1045,10062,026.9,045.3,0.152,739.8,01.18,0.508
2014-04-22 03:47:00,3311E-2,5C000410,-0724,1044,10083,026.9,045.3,0.152,739.8,01.18,0.508
2014-04-22 03:48:00,3379E-2,5C000400,-0724,1045,9954,026.9,045.3,0.152,739.7,01.18,0.508
2014-04-22 03:49:00,3312E-2,5C000400,-0724,1044,10127,026.9,045.3,0.152,739.7,01.18,0.508
2014-04-22 03:50:00,3278E-2,5C000400,-0724,1044,10101,026.9,045.3,0.152,739.7,01.18,0.508
2014-04-22 03:51:00,3312E-2,5C000400,-0724,1044,10108,026.9,045.3,0.152,739.8,01.18,0.508
2014-04-22 03:52:00,3297E-2,5C000400,-0724,1044,10078,026.9,045.3,0.152,739.7,01.18,0.508
2014-04-22 03:53:00,3305E-2,5C000400,-0724,1045,10133,026.9,045.3,0.152,739.7,01.18,0.508
2014-04-22 03:54:00,3371E-2,5C000410,-0724,1046,10099,026.9,045.3,0.152,739.7,01.18,0.508
2014-04-22 03:55:00,3387E-2,5C000400,-0724,1044,9964,026.9,045.3,0.152,739.7,01.18,0.508
2014-04-22 03:56:00,3302E-2,5C000400,-0724,1044,10073,026.9,045.3,0.152,739.7,01.18,0.508
2014-04-22 03:57:00,3303E-2,5C000400,-0724,1045,9992,026.9,045.3,0.152,739.7,01.18,0.508
2014-04-22 03:58:00,3316E-2,5C000410,-0724,1045,10034,026.9,045.3,0.152,739.7,01.18,0.508
2014-04-22 03:59:00,3326E-2,5C000400,-0724,1046,9910,026.9,045.3,0.152,739.7,01.18,0.508
2014-04-22 04:00:00,3318E-2,5C000400,-0724,1045,10155,026.9,045.3,0.152,739.7,01.18,0.508
2014-04-22 04:01:00,3315E-2,5C000400,-0724,1045,10004,026.9,045.3,0.152,739.8,01.18,0.508
2014-04-22 04:02:00,3325E-2,5C000400,-0724,1047,9913,026.9,045.3,0.152,739.7,01.18,0.508
2014-04-22 04:03:00,3341E-2,5C000410,-0724,1046,10080,026.9,045.3,0.152,739.6,01.18,0.508
2014-04-22 04:04:00,3307E-2,5C000410,-0724,1045,10194,026.9,045.3,0.152,739.6,01.18,0.508
2014-04-22 04:05:00,3314E-2,5C000400,-0724,1045,9985,026.9,045.3,0.152,739.7,01.18,0.508
2014-04-22 04:06:00,3323E-2,5C000410,-0724,1046,10046,026.9,045.3,0.152,739.6,01.18,0.508
2014-04-22 04:07:00,3356E-2,5C000410,-0724,1045,9866,026.9,045.3,0.152,739.6,01.18,0.508
2014-04-22 04:08:00,3329E-2,5C000400,-0724,1045,10142,026.9,045.3,0.152,739.6,01.18,0.508
2014-04-22 04:09:00,3369E-2,5C000400,-0724,1046,10038,026.9,045.3,0.152,739.6,01.18,0.508
2014-04-22 04:10:00,3348E-2,5C000400,-0724,1047,10122,026.9,045.3,0.152,739.6,01.18,0.508
2014-04-22 04:11:00,3348E-2,5C000400,-0724,1046,10041,026.9,045.3,0.152,739.6,01.18,0.508
2014-04-22 04:12:00,3332E-2,5C000400,-0724,1045,10059,026.9,045.3,0.152,739.6,01.18,0.508
2014-04-22 04:13:00,3320E-2,5C000400,-0724,1046,10122,026.9,045.3,0.152,739.5,01.18,0.508
2014-04-22 04:14:00,3340E-2,5C000400,-0724,1045,10093,026.9,045.3,0.152,739.5,01.18,0.508
2014-04-22 04:15:00,3342E-2,5C000400,-0724,1046,10001,026.9,045.3,0.152,739.6,01.18,0.508
2014-04-22 04:16:00,3315E-2,5C000400,-0724,1046,10064,026.9,045.3,0.152,739.5,01.18,0.508
2014-04-22 04:17:00,3342E-2,5C000400,-0724,1047,10007,026.9,045.3,0.152,739.6,01.18,0.508
2014-04-22 04:18:00,3344E-2,5C000400,-0724,1045,9975,026.9,045.3,0.152,739.6,01.18,0.508
2014-04-22 04:19:00,3367E-2,5C000400,-0724,1046,10100,026.9,045.3,0.152,739.6,01.18,0.508
2014-04-22 04:20:00,3327E-2,5C000400,-0724,1042,10161,026.9,045.3,0.152,739.6,01.18,0.508